Tracking 25195 objects as of 21-Jan-2022
HD Live streaming from Space Station
objects crossing your sky now

STARLINK-3286

Track STARLINK-3286 now!
10-day predictions
STARLINK-3286 is classified as:


NORAD ID: 50171
Int'l Code: 2021-125R
Perigee: 356.1 km
Apogee: 357.6 km
Inclination: 53.2 °
Period: 91.5 minutes
Semi major axis: 6727 km
RCS: Unknown
Launch date: December 18, 2021
Source: United States (US)
Launch site: AIR FORCE WESTERN TEST RANGE (AFWTR)
aabbcc
Your satellite tracking list
Your tracking list is empty




NASA's NSSDC Master Catalog

Two Line Element Set (TLE):
1 50171U 21125R   22020.58334491 -.00118287  00000-0 -84961-3 0  9998
2 50171  53.2168 202.0077 0001078  74.0296 224.7270 15.73218858  3716
Source of the keplerian elements: AFSPC